Tracking 23731 objects as of 26-Sep-2021
HD Live streaming from Space Station
objects crossing your sky now

STARLINK-1486

Track STARLINK-1486 now!
10-day predictions
STARLINK-1486 is classified as:


NORAD ID: 45757
Int'l Code: 2020-038AD
Perigee: 553.4 km
Apogee: 555.3 km
Inclination: 53.1 °
Period: 95.6 minutes
Semi major axis: 6925 km
RCS: Unknown
Launch date: June 13, 2020
Source: United States (US)
Launch site: AIR FORCE EASTERN TEST RANGE (AFETR)
aabbcc
Your satellite tracking list
Your tracking list is empty




NASA's NSSDC Master Catalog

Two Line Element Set (TLE):
1 45757U 20038AD  21268.84910751 -.00000579  00000-0 -19998-4 0  9998
2 45757  53.0546 315.3105 0001362  79.8783 280.2360 15.06393076 72533
Source of the keplerian elements: AFSPC